TimeEST,TemperatureF,Dew PointF,Humidity,Sea Level PressureIn,VisibilityMPH,Wind Direction,Wind SpeedMPH,Gust SpeedMPH,PrecipitationIn,Events,Conditions,WindDirDegrees,DateUTC
12:15 AM,37.4,28.4,70,29.63,10.0,West,9.2,21.9,N/A,,Overcast,270,2013-02-20 05:15:00
12:35 AM,35.6,28.4,75,29.63,10.0,West,9.2,16.1,N/A,,Overcast,260,2013-02-20 05:35:00
12:55 AM,35.6,26.6,70,29.63,10.0,West,10.4,18.4,N/A,,Partly Cloudy,270,2013-02-20 05:55:00
1:15 AM,35.6,24.8,65,29.63,10.0,West,9.2,18.4,N/A,,Clear,260,2013-02-20 06:15:00
1:35 AM,33.8,23.0,65,29.64,10.0,West,11.5,20.7,N/A,,Partly Cloudy,270,2013-02-20 06:35:00
1:55 AM,33.8,21.2,60,29.65,10.0,West,10.4,19.6,N/A,,Mostly Cloudy,270,2013-02-20 06:55:00
2:16 AM,33.8,19.4,56,29.65,10.0,West,8.1,20.7,N/A,,Overcast,280,2013-02-20 07:16:00
2:35 AM,33.8,19.4,56,29.65,10.0,WNW,6.9,20.7,N/A,,Overcast,290,2013-02-20 07:35:00
2:55 AM,33.8,19.4,56,29.65,10.0,WNW,8.1,19.6,N/A,,Overcast,300,2013-02-20 07:55:00
3:15 AM,33.8,19.4,56,29.65,10.0,WNW,10.4,16.1,N/A,,Overcast,300,2013-02-20 08:15:00
3:35 AM,33.8,19.4,56,29.65,10.0,NW,8.1,-,N/A,,Overcast,310,2013-02-20 08:35:00
4:15 AM,32.0,17.6,55,29.66,10.0,WNW,8.1,-,N/A,,Overcast,290,2013-02-20 09:15:00
4:35 AM,32.0,17.6,55,29.67,10.0,WNW,9.2,16.1,N/A,,Overcast,290,2013-02-20 09:35:00
4:55 AM,30.2,17.6,60,29.68,10.0,West,10.4,18.4,N/A,,Overcast,280,2013-02-20 09:55:00
5:15 AM,30.2,17.6,60,29.68,10.0,WNW,10.4,17.3,N/A,,Mostly Cloudy,290,2013-02-20 10:15:00
5:35 AM,30.2,17.6,60,29.68,10.0,West,9.2,17.3,N/A,,Mostly Cloudy,280,2013-02-20 10:35:00
5:55 AM,30.2,17.6,60,29.70,10.0,NW,5.8,-,N/A,,Mostly Cloudy,310,2013-02-20 10:55:00
7:45 AM,28.4,12.2,51,29.75,10.0,WNW,11.5,20.7,N/A,,Partly Cloudy,300,2013-02-20 12:45:00
8:45 AM,28.4,10.4,47,29.75,10.0,WNW,11.5,25.3,N/A,,Mostly Cloudy,300,2013-02-20 13:45:00
10:45 AM,28.4,10.4,47,29.77,10.0,WNW,15.0,23.0,N/A,,Overcast,300,2013-02-20 15:45:00
11:45 AM,28.4,10.4,47,29.76,10.0,WNW,15.0,23.0,N/A,,Overcast,300,2013-02-20 16:45:00
12:45 PM,26.6,8.6,47,29.75,10.0,WNW,10.4,20.7,N/A,,Overcast,300,2013-02-20 17:45:00
1:45 PM,28.4,8.6,43,29.74,10.0,WNW,9.2,18.4,N/A,,Overcast,290,2013-02-20 18:45:00
2:45 PM,28.4,8.6,43,29.75,10.0,West,10.4,20.7,N/A,,Mostly Cloudy,280,2013-02-20 19:45:00
3:45 PM,28.4,8.6,43,29.76,10.0,WNW,11.5,28.8,N/A,,Mostly Cloudy,300,2013-02-20 20:45:00
4:45 PM,26.6,8.6,47,29.78,10.0,WNW,12.7,18.4,N/A,,Mostly Cloudy,300,2013-02-20 21:45:00
5:55 PM,24.8,6.8,46,29.81,10.0,NW,11.5,24.2,N/A,,Mostly Cloudy,310,2013-02-20 22:55:00
7:45 PM,23.0,5.0,46,29.83,10.0,WNW,15.0,24.2,N/A,,Clear,300,2013-02-21 00:45:00
8:45 PM,23.0,6.8,50,29.83,10.0,WNW,12.7,23.0,N/A,,Clear,300,2013-02-21 01:45:00
9:15 PM,21.2,6.8,54,29.84,10.0,West,11.5,24.2,N/A,,Clear,280,2013-02-21 02:15:00
9:35 PM,21.2,6.8,54,29.84,10.0,West,9.2,20.7,N/A,,Clear,280,2013-02-21 02:35:00
9:55 PM,21.2,6.8,54,29.85,10.0,West,5.8,-,N/A,,Clear,270,2013-02-21 02:55:00
10:15 PM,21.2,6.8,54,29.84,10.0,WNW,13.8,24.2,N/A,,Clear,300,2013-02-21 03:15:00
10:35 PM,21.2,6.8,54,29.85,10.0,WNW,12.7,19.6,N/A,,Clear,300,2013-02-21 03:35:00
10:55 PM,21.2,6.8,54,29.86,10.0,WNW,11.5,17.3,N/A,,Clear,290,2013-02-21 03:55:00
11:35 PM,21.2,6.8,54,29.88,10.0,WNW,8.1,-,N/A,,Clear,290,2013-02-21 04:35:00
11:55 PM,21.2,6.8,54,29.88,10.0,West,10.4,20.7,N/A,,Clear,280,2013-02-21 04:55:00